Location: ????????
(41.0429°N, 22.6950°E)
Time: 22:31:02
(UTC+00:00)

Daily predictions for brighter satellites

Satellite Brightness Start Highest point End
(mag) Time Altitude Azimuth Time Altitude Azimuth Time Altitude Azimuth
OBJECT-B 3.3 18:33:45 10° SW 18:35:57 19° W 18:38:11 10° NW
Cosmos 1954 Rocket 4.1 18:33:23 10° NNW 18:38:37 63° ENE 18:43:46 10° SSE
ATLAS 2AS CENTAUR R/B 2.8 18:34:29 10° NNW 18:41:34 71° NE 18:48:09 10° SE
GEOS 3 Rocket 3.9 18:36:51 10° SE 18:41:50 56° NE 18:46:51 10° NNW
Cosmos 1544 Rocket 4.2 18:39:50 10° N 18:43:53 38° ENE 18:47:57 10° SSE
Lacrosse 5 rocket 2.0 18:42:13 10° WNW 18:45:55 45° SW 18:49:48 10° SSE
Cosmos 1980 Rocket 4.3 18:49:37 10° NNE 18:52:06 13° NE 18:54:35 10° ENE
Resurs 1-3 4.3 18:48:23 10° S 18:52:40 56° W 18:57:00 10° NNW
USA 32 4.2 18:47:42 10° SSE 18:52:45 54° E 18:57:50 10° NNE
Cosmos 1697 Rocket 4.2 18:48:36 10° N 18:53:00 23° NE 18:57:21 10° ESE
TSX-5 4.3 18:49:54 10° SSW 18:54:08 67° ESE 18:59:41 10° NNE
PSLV R/B 3.9 18:53:15 10° NNE 18:57:25 82° ESE 19:01:36 10° S
COSMOS 2406 4.5 18:54:45 10° SSE 18:58:59 22° E 19:03:15 10° NE
SPOT 1/Viking Rocket 3.6 18:53:59 10° SSE 18:59:05 69° ENE 19:04:12 10° N
IRS-1A Rocket 4.4 18:54:06 10° SSE 19:00:00 78° ENE 19:05:53 10° N
NOSS 2-1 (E) 4.3 18:56:35 10° NNW 19:01:29 75° NE 19:07:54 12° SE
Cosmos 1025 Rocket 3.7 19:01:56 10° SSW 19:06:08 55° W 19:10:22 10° N
X-37B 1.7 19:10:13 10° WNW 19:12:50 35° N 19:15:29 10° ENE
SPOT 5 3.8 19:10:32 14° ESE 19:13:27 27° ENE 19:17:06 10° N
Cosmos 1833 Rocket 2.8 19:09:50 10° S 19:15:13 51° ESE 19:20:39 10° NNE
Cosmos 1452 Rocket 3.4 19:11:13 10° SSW 19:16:27 76° ESE 19:21:43 10° NNE
Cosmos 1703 3.6 19:16:02 14° SSE 19:19:03 43° E 19:22:43 10° NNE
Terra 3.2 19:17:35 14° ESE 19:20:31 24° ENE 19:24:19 10° NNE
Delta 2 Rocket 3.6 19:19:00 10° WSW 19:22:00 31° S 19:23:21 22° SE
Cosmos 1110 Rocket 4.2 19:17:28 10° S 19:22:34 54° ESE 19:27:43 10° NNE
RESURS DK-1 2.9 19:18:53 10° NNW 19:22:53 46° ENE 19:25:28 20° SE
ERS-1 Rocket 3.8 19:22:34 17° SE 19:25:52 36° ENE 19:30:26 10° N
Helios 1A Rocket 3.9 19:24:58 19° ESE 19:27:15 32° ENE 19:30:55 10° N
Resurs 01 Rocket 2.5 19:24:22 10° S 19:28:38 48° W 19:32:58 10° NNW
CZ-4B R/B 2.4 19:28:39 10° N 19:31:22 39° WNW 19:34:05 10° SW
Cosmos 2184 Rocket 4.1 19:26:17 10° N 19:32:25 63° E 19:37:07 18° SSE
Cosmos 2228 3.4 19:32:14 10° N 19:36:19 45° ENE 19:38:27 24° SE
IRAS Rocket 4.4 19:33:30 10° NNE 19:39:06 79° WNW 19:44:38 10° SSW
Lacrosse 5 2.8 19:34:47 10° WNW 19:39:32 39° SW 19:42:52 18° S
Cosmos 1328 4.3 19:46:39 29° SE 19:48:04 40° E 19:51:50 10° NNE
Cosmos 2082 Rocket 2.7 19:45:37 21° SSE 19:48:55 39° ESE 19:54:10 10° NE
Cosmos 1271 Rocket 4.3 19:46:49 10° NNW 19:50:22 32° W 19:53:48 10° SSW
Cosmos 2360 4.4 19:44:52 10° NNW 19:50:34 60° ENE 19:53:50 25° SE
USA 267 3.8 19:46:45 10° ENE 19:52:33 33° SE 19:58:11 11° S
USA 245 3.6 19:52:45 22° S 19:55:22 64° WSW 19:58:52 10° NNW
Cosmos 1536 Rocket 4.4 19:51:59 10° SSW 19:56:10 49° W 20:00:24 10° N
Meteor 1-21 Rocket 4.1 19:54:31 16° S 19:59:05 83° E 20:04:48 10° NNE
Cosmos 1455 4.2 19:56:27 10° NW 19:59:37 25° W 20:02:47 10° SSW
CARTOSAT-1 4.4 19:56:43 17° SSW 19:59:48 45° W 20:03:57 10° NNW
ARIANE 5 R/B 3.3 19:58:11 28° ESE 19:59:53 40° ENE 20:04:02 10° N
Cosmos 1606 Rocket 3.6 20:00:27 10° N 20:04:45 61° E 20:06:16 37° SE
GP-B 4.4 20:01:55 10° NNE 20:05:31 24° E 20:06:09 23° E
Cosmos 1741 Rocket 4.3 20:01:41 10° NNW 20:06:57 64° WSW 20:09:58 26° S
Cosmos 192 4.2 20:04:06 23° S 20:07:03 68° ESE 20:11:56 10° NNE
ATLAS 5 CENTAUR R/B 4.0 20:00:35 10° NW 20:07:43 26° W 20:10:21 14° SSW
SPOT 3 Rocket 4.2 20:05:32 18° S 20:09:11 51° W 20:14:16 10° NNW
Tiangong 3.8 20:09:19 10° SW 20:09:38 11° SW 20:09:38 11° SW
Cosmos 2074 Rocket 4.4 20:08:56 10° NNW 20:15:04 59° W 20:19:38 18° SSW
Cosmos 2327 Rocket 4.4 20:09:05 10° N 20:15:25 80° E 20:18:42 30° SSE
Nadezhda 1 Rocket 4.1 20:18:42 16° SSW 20:23:35 70° W 20:29:39 10° N
Cosmos 1892 3.0 20:27:17 46° E 20:27:17 46° E 20:30:51 10° NNE
Cosmos 1726 Rocket 3.4 20:23:10 10° N 20:27:30 83° E 20:28:35 50° SSE
ATLAS 2AS CENTAUR R/B 4.4 20:26:42 10° WNW 20:31:42 22° WSW 20:35:55 12° SSW
Meteor 2-1 Rocket 4.3 20:27:14 10° NNW 20:32:43 69° W 20:35:17 32° S
Cosmos 1932 4.4 20:29:22 24° SSW 20:33:16 67° ESE 20:39:31 10° NE
Cosmos 1992 Rocket 4.3 20:35:13 42° SE 20:36:05 46° ESE 20:41:05 10° NNE
SL-16 R/B 4.0 20:32:21 10° N 20:36:38 21° NE 20:39:33 15° E
Cosmos 1980 Rocket 2.2 20:31:26 10° NNW 20:37:09 73° ENE 20:39:07 42° SE
Cosmos 1697 Rocket 3.0 20:31:50 10° NNW 20:37:19 56° WSW 20:39:32 34° SSW
SL-8 R/B 3.7 20:35:47 10° WNW 20:40:33 64° SW 20:41:22 54° SSE
Cosmos 2344 4.4 20:31:12 10° NW 20:40:34 87° ENE 20:48:13 29° SE
Cosmos 2369 3.7 20:34:50 10° NNW 20:40:37 87° ENE 20:42:35 43° SSE
COSMOS 2406 3.9 20:37:13 10° SW 20:42:50 54° WNW 20:48:29 10° NNE
TIMED 4.4 20:45:10 50° SSW 20:46:16 83° WNW 20:50:39 10° NNE
ATLAS 5 CENTAUR R/B 1.4 20:48:00 56° ENE 20:48:00 56° ENE 20:51:22 10° NE
X-37B 2.3 20:45:40 10° WNW 20:47:01 25° WNW 20:47:01 25° WNW
In-Cosmos 22 Rocket 4.1 20:48:39 47° SSE 20:50:09 68° E 20:55:34 10° NNE
SPOT 5 4.3 20:49:45 20° SW 20:51:29 26° W 20:55:07 10° NW
Terra 2.9 20:56:28 28° SW 20:58:04 36° W 21:02:27 10° NNW
Meteor 1-27 4.3 20:53:28 10° N 20:58:59 62° ENE 21:00:16 48° SE
Cosmos 1869 3.8 20:56:12 10° N 20:59:42 47° ENE 20:59:42 47° ENE
Cosmos 2084 Rocket 3.6 20:56:18 10° NW 21:00:03 53° WSW 21:00:03 53° WSW
ADEOS Rocket 4.4 20:58:46 24° ESE 21:02:13 36° ENE 21:09:04 10° N
ALOS 2 4.3 21:02:25 21° ENE 21:02:56 22° ENE 21:06:18 10° NNE
ASTEX 1 3.5 21:00:03 10° N 21:05:03 74° W 21:06:20 49° SSW
SL-8 Rocket 3.9 21:00:11 10° N 21:06:26 87° W 21:08:22 47° S
Cosmos 2322 Rocket 3.6 21:07:31 10° N 21:12:22 28° NE 21:14:37 22° E
Cosmos 1825 2.4 21:15:03 65° NNW 21:15:03 65° NNW 21:18:20 10° N
Cosmos 2058 Rocket 3.5 21:10:31 10° NNW 21:14:49 51° W 21:15:19 48° WSW
Cosmos 1408 4.1 21:16:15 27° W 21:16:25 27° WNW 21:19:26 10° NNW
Cosmos 1626 Rocket 3.4 21:17:38 88° WSW 21:17:39 88° W 21:22:02 10° N
Cosmos 2278 3.6 21:17:36 10° NNW 21:23:21 82° WSW 21:24:23 61° S
Cosmos 2366 rocket 4.0 21:19:10 10° N 21:25:30 75° W 21:27:20 49° SSW
Cosmos 968 Rocket 4.3 21:20:55 10° NW 21:25:44 39° WSW 21:26:36 36° SW
Cosmos 2218 Rocket 4.1 21:22:36 10° NNW 21:28:59 70° W 21:30:49 47° SSW
Meteor 2-20 4.4 21:29:48 55° SE 21:30:56 67° E 21:36:58 10° NNE
USA 276 4.4 21:28:50 10° NW 21:31:01 23° N 21:31:01 23° N
Cosmos 2082 Rocket 3.8 21:28:01 10° WSW 21:33:03 31° WNW 21:38:06 10° N
SJ 16-02 2.3 21:31:10 10° N 21:35:18 37° ENE 21:35:23 37° ENE
USA 267 3.5 21:29:19 10° NE 21:35:49 70° NW 21:42:19 10° WSW
Cosmos 1867 3.9 21:30:54 10° NW 21:36:09 49° WSW 21:36:30 48° SW
H-2A R/B 3.9 21:41:00 10° NNE 21:44:31 57° NE 21:44:31 57° NE
Cosmos 2360 Rocket 3.4 21:43:15 10° N 21:48:25 34° ENE 21:50:16 28° E
Spot 4 3.7 21:48:33 77° WSW 21:48:36 77° WSW 21:53:25 10° NNW
Cosmos 2058 3.8 21:50:01 41° NE 21:50:01 41° NE 21:53:12 10° NNE
Cosmos 2221 4.4 21:48:13 10° NNE 21:51:27 20° ENE 21:51:30 20° ENE
SL-08 R/B 4.5 21:45:21 10° N 21:51:50 88° ENE 21:53:14 59° S
Cosmos 1606 3.6 21:50:29 10° N 21:53:24 45° NNE 21:53:24 45° NNE
Meteor 2-20 Rocket 4.3 21:58:19 64° SSE 21:59:18 80° E 22:05:26 10° N
Cosmos 44 4.2 22:02:58 35° ENE 22:02:58 35° ENE 22:05:55 10° NE
Cosmos 2237 4.3 21:58:17 10° NNW 22:04:01 69° ENE 22:04:54 59° ESE
USA 234 3.5 22:04:42 29° ESE 22:08:13 67° NE 22:14:44 10° NW
Cosmos 1758 Rocket 4.2 22:08:36 48° WNW 22:08:36 48° WNW 22:12:40 10° N
Cosmos 1633 4.5 22:12:09 24° NW 22:12:09 24° NW 22:14:20 10° NNW
Cosmos 1821 Rocket 4.2 22:14:19 10° NNW 22:20:22 57° W 22:21:23 51° SW
Cosmos 1980 Rocket 4.2 22:17:20 10° WNW 22:20:25 15° W 22:20:53 15° WSW
SL-16 R/B 2.2 22:15:36 10° NNW 22:21:11 61° WSW 22:21:23 61° WSW
SL-4 R/B 3.4 22:23:23 31° NNE 22:23:23 31° NNE 22:25:37 10° NE
Cosmos 2219 Rocket 3.7 22:20:32 10° N 22:25:31 30° NE 22:28:08 21° E
CRYOSAT 2 4.4 22:31:17 73° ENE 22:31:17 73° ENE 22:36:07 10° N
Cosmos-2242 4.3 22:28:05 10° NNW 22:31:12 31° WNW 22:31:12 31° WNW
ATLAS 5 CENTAUR R/B 4.1 22:30:27 10° WNW 22:32:30 14° NW 22:34:41 10° N
Cosmos 1605 Rocket 4.3 22:30:38 10° N 22:37:00 61° E 22:38:25 49° SE
ERS-2 3.5 22:35:15 10° N 22:37:40 37° NNW 22:37:40 37° NNW
ALOS 2 3.9 22:39:49 32° WNW 22:39:49 32° WNW 22:43:03 10° NNW
Meteor 2-11 Rocket 4.3 22:36:28 10° N 22:42:37 90° E 22:43:30 67° S
Cosmos 1076 Rocket 4.3 22:46:53 45° ENE 22:46:53 45° ENE 22:50:30 10° NNE
ADEOS Rocket 3.8 22:45:43 42° SW 22:47:23 48° W 22:54:46 10° NNW
Cosmos 972 Rocket 4.0 22:49:02 10° NNW 22:54:19 78° WSW 22:54:40 75° SSW
NOSS 3-2 (A) 3.7 22:54:56 43° ESE 22:54:56 43° ESE 23:00:27 10° NE
Cosmos 540 Rocket 4.3 22:55:58 37° E 22:55:58 37° E 23:00:35 10° NE
Cosmos 2322 Rocket 2.7 22:51:12 10° NW 22:56:24 43° WSW 22:56:24 43° WSW
Cosmos 1933 4.2 22:53:11 10° N 22:56:26 44° NE 22:56:26 44° NE
SL-27 R/B 4.3 23:00:48 28° NNE 23:00:48 28° NNE 23:02:31 10° NNE
ISS -1.5 23:01:42 23° NE 23:01:42 23° NE 23:03:10 10° NE
PSLV R/B 4.2 22:58:21 10° N 23:02:58 52° WNW 23:03:01 52° WNW
Cosmos 2285 Rocket 4.1 23:08:13 53° SSE 23:09:22 61° ESE 23:15:42 10° NNE
CENTAUR R/B 2.5 23:09:34 52° SE 23:10:03 54° ESE 23:16:31 10° NE
Cosmos 2333 Rocket 2.1 23:06:16 10° NNW 23:12:04 88° WSW 23:12:51 68° SSE
COSMOS 2487 4.5 23:14:00 23° N 23:14:00 23° N 23:15:24 10° N
Gbstr 26 Del rocket 4.5 23:11:09 24° WNW 23:13:18 39° NNW 23:18:18 10° NE
SJ 16-02 3.4 23:10:24 10° NW 23:12:19 17° WNW 23:12:19 17° WNW
Cosmos 2151 3.2 23:14:58 67° NE 23:14:58 67° NE 23:18:48 10° N
Cosmos 1898 Rocket 4.1 23:14:02 10° N 23:19:05 51° ENE 23:20:28 40° ESE
Meteor 2-3 Rocket 3.6 23:20:57 64° SW 23:21:38 72° W 23:27:14 10° N
Cosmos 1812 3.4 23:23:38 10° N 23:26:44 53° NNE 23:26:44 53° NNE
Cosmos 1937 Rocket 4.4 23:22:26 10° N 23:27:27 44° ENE 23:29:31 30° ESE
Cosmos 2221 3.8 23:25:06 10° NNW 23:28:18 32° WNW 23:28:18 32° WNW
Cosmos 2227 Rocket 4.0 23:29:43 18° ESE 23:31:08 19° E 23:35:03 10° NE
Cosmos 1842 Rocket 4.4 23:27:33 10° NNW 23:31:14 41° WNW 23:31:14 41° WNW
Cosmos 1153 Rocket 4.4 23:25:26 10° N 23:31:48 84° W 23:33:16 56° S
Cosmos 2360 Rocket 3.1 23:27:17 10° NW 23:32:00 34° W 23:32:00 34° W
Cosmos 1862 4.0 23:34:11 48° ENE 23:34:11 48° ENE 23:37:33 10° NNE
Resurs 1-4 Rocket 2.9 23:31:52 10° NNE 23:36:53 40° E 23:38:01 36° SE
Cosmos 2333 4.4 23:31:27 10° NNW 23:37:04 53° WSW 23:37:21 53° WSW
Cosmos 1782 3.4 23:34:06 10° NNW 23:37:13 49° NW 23:37:13 49° NW
NOSS 3-2 (C) 3.4 23:41:34 48° SE 23:42:18 52° ESE 23:48:11 10° NE
CZ-2D R/B 2.7 23:40:29 10° NNE 23:45:30 46° E 23:46:39 39° SE
COSMOS 2455 4.3 23:41:22 10° NNW 23:46:52 36° NE 23:52:20 10° ESE
USA 234 3.9 23:52:01 35° WSW 23:52:01 35° WSW 23:57:23 10° WNW
Cosmos 1727 Rocket 4.3 23:51:12 44° SW 23:52:48 56° W 23:58:59 10° N
